Paso Robles, CA

6:35 PM PST on February 07, 2016 (GMT -0800)
Paso Robles Municipal

Weather History for KPRB - May, 2013

Change the Weather History Date:

Saturday, May 18, 2013

  Actual Average Record
Temperature  
Mean Temperature 66 °F 64 °F  
Max Temperature 85 °F 81 °F 103 °F (2008)
Min Temperature 47 °F 46 °F 30 °F (1974)
Degree Days  
Heating Degree Days 0 3  
Month to date heating degree days 15 76  
Since 1 July heating degree days 2363 2788  
Cooling Degree Days 1 2  
Month to date cooling degree days 65 26  
Year to date cooling degree days 94 35  
Growing Degree Days 16 (Base 50)    
Moisture  
Dew Point 37 °F    
Average Humidity 45    
Maximum Humidity 80    
Minimum Humidity 10    
Precipitation  
Precipitation 0.00 in 0.01 in 0.43 in (1957)
Month to date precipitation 0.05 0.20  
Year to date precipitation 1.46 8.71  
Since 1 July precipitation 4.67  
Sea Level Pressure  
Sea Level Pressure 30.06 in    
Wind  
Wind Speed 12 mph (NW)    
Max Wind Speed 25 mph    
Max Gust Speed 32 mph    
Visibility 10 miles    
Events      
T = Trace of Precipitation, MM = Missing Value Source: NWS Daily Summary

Daily Weather History Graph

Daily Weather History Graph

Search for Another Location

Airport or City:

Trip Planner

Search our weather history database for the weather conditions in past years. The results will help you decide how hot, cold, wet, or windy it might be!

Date:

Astronomy

May. 18, 2013 Rise Set
Actual Time 5:55 AM PDT 8:03 PM PDT
Civil Twilight 5:26 AM PDT 8:32 PM PDT
Nautical Twilight 4:51 AM PDT 9:07 PM PDT
Astronomical Twilight 4:13 AM PDT 9:45 PM PDT
Moon 1:25 PM PDT (5/18) 1:35 AM PDT (5/18)
Length of Visible Light 15h 05m
Length of Day
14h 08m
First Quarter, 56% of the Moon is Illuminated
May 18
First Quarter
May 24
Full
May 31
Last Quarter
Jun 8
New
Jun 16
First Quarter

Hourly Weather History & Observations

Time (PDT) Temp. Dew Point Humidity Pressure Visibility Wind Dir Wind Speed Gust Speed Precip Events Conditions
12:53 AM 53.1 °F 39.9 °F 61% 30.06 in 10.0 mi NW 12.7 mph - N/A   Clear
1:53 AM 52.0 °F 41.0 °F 66% 30.06 in 10.0 mi NW 10.4 mph - N/A   Clear
2:53 AM 50.0 °F 41.0 °F 71% 30.06 in 10.0 mi NW 8.1 mph - N/A   Clear
3:53 AM 48.9 °F 41.0 °F 74% 30.07 in 10.0 mi NW 8.1 mph - N/A   Clear
4:53 AM 48.0 °F 42.1 °F 80% 30.07 in 10.0 mi NW 16.1 mph - N/A   Clear
5:53 AM 48.0 °F 43.0 °F 83% 30.09 in 10.0 mi NW 10.4 mph - N/A   Clear
6:53 AM 48.0 °F 43.0 °F 83% 30.10 in 10.0 mi NNW 5.8 mph - N/A   Clear
7:53 AM 51.1 °F 44.1 °F 77% 30.12 in 10.0 mi North 12.7 mph - N/A   Clear
8:53 AM 55.0 °F 43.0 °F 64% 30.12 in 10.0 mi NW 6.9 mph - N/A   Clear
9:53 AM 60.1 °F 43.0 °F 53% 30.12 in 10.0 mi Variable 3.5 mph - N/A   Clear
10:53 AM 66.0 °F 37.0 °F 34% 30.10 in 10.0 mi NW 6.9 mph - N/A   Clear
12:53 PM 75.0 °F 24.1 °F 15% 30.07 in 10.0 mi NW 5.8 mph - N/A   Clear
1:53 PM 80.1 °F 19.0 °F 10% 30.04 in 10.0 mi NNW 9.2 mph - N/A   Clear
2:53 PM 82.9 °F 19.9 °F 10% 30.02 in 10.0 mi WNW 12.7 mph 17.3 mph N/A   Clear
3:53 PM 84.9 °F 23.0 °F 10% 30.01 in 10.0 mi NW 11.5 mph - N/A   Clear
4:53 PM 84.9 °F 27.0 °F 12% 30.00 in 10.0 mi NNW 16.1 mph 21.9 mph N/A   Clear
5:53 PM 82.0 °F 30.9 °F 16% 30.01 in 10.0 mi NNW 17.3 mph 25.3 mph N/A   Clear
6:53 PM 77.0 °F 35.1 °F 22% 30.01 in 10.0 mi NW 19.6 mph - N/A   Clear
7:53 PM 71.1 °F 39.0 °F 31% 30.03 in 10.0 mi NW 19.6 mph - N/A   Clear
8:53 PM 66.0 °F 41.0 °F 40% 30.05 in 10.0 mi WNW 10.4 mph - N/A   Clear
10:53 PM 60.1 °F 46.0 °F 60% 30.06 in 10.0 mi NW 18.4 mph 27.6 mph N/A   Clear
11:53 PM 57.0 °F 46.0 °F 67% 30.06 in 10.0 mi NNW 15.0 mph - N/A   Clear